Regional Weather Roundup
Issued by NWS Newport/Morehead, NC

Current Version | Previous Version | Graphics & Text | Print | Product List | Glossary On
Versions: 1 2 3 4 5 6 7 8 9 10 11 12 13 14 15 16 17 18 19 20 21 22 23 24 25 26 27 28 29 30 31 32 33 34 35 36 37 38 39 40 41 42 43 44 45 46 47 48 49 50
000 ASUS42 KMHX 010810 RWRMHX WEATHER ROUNDUP FOR EASTERN NORTH CAROLINA NATIONAL WEATHER SERVICE NEWPORT/MOREHEAD CITY NC 300 AM EST SUN FEB 01 2015 NOTE: "FAIR" INDICATES FEW OR NO CLOUDS BELOW 12,000 FEET WITH NO SIGNIFICANT WEATHER AND/OR OBSTRUCTIONS TO VISIBILITY NCZ015>017-031-032-045>047-102-103-010900- NORTH COAST CITY SKY/WX TMP DP RH WIND PRES REMARKS EDENTON PTCLDY 36 23 59 SW6 30.28S ELIZABETH CITY CLEAR 31 21 66 S3 30.28S KITTY HAWK SUNNY 34 25 69 SW5 30.27S MANTEO CLEAR 34 25 69 SW5 30.29S $$ NCZ045>047-081-094-103-104-010900- CENTRAL COAST CITY SKY/WX TMP DP RH WIND PRES REMARKS FRISCO CLEAR 37 20 50 W6 30.30S SWANQUARTER N/A 37 N/A N/A SW2G8 30.27S $$ NCZ095-097-098-100-101-010900- SOUTHERN COAST CITY SKY/WX TMP DP RH WIND PRES REMARKS BEAUFORT CLEAR 33 27 78 NW3 30.31S CEDAR ISLAND N/A 34 N/A N/A SW3 30.33S JACKSONVILLE MOCLDY 35 25 66 CALM 30.31R PINEY ISLAND N/A N/A N/A N/A MISG 30.31R WILMINGTON PTCLDY 31 27 85 CALM 30.32R $$ NCZ011>013-027>030-043-044-078>080-089-090>093-098-010900- COASTAL PLAIN CITY SKY/WX TMP DP RH WIND PRES REMARKS AHOSKIE PTCLDY 29 20 69 CALM 30.27F CLINTON MOCLDY 37 23 57 CALM 30.31R ELIZABETHTOWN MOCLDY 37 25 62 SW3 30.30S GOLDSBORO CLOUDY 37 22 53 CALM 30.28R GREENVILLE CLOUDY 36 19 51 SW6 30.29S HAVELOCK PTCLDY 28 23 81 CALM 30.32S KENANSVILLE MOCLDY 34 22 61 CALM 30.32R KINSTON CLOUDY 35 24 64 SW6 30.30S NEW BERN PTCLDY 35 23 61 SW5 30.32R RICHLANDS MOCLDY 30 25 80 CALM 30.32R ROCKY MOUNT CLOUDY 33 23 66 S3 30.28S WASHINGTON MOCLDY 34 19 55 S3 30.30R WHITEVILLE PTCLDY 35 27 73 CALM 30.31S $$ AMZ130-135-150-152-154-156-158-170-250-252-270-ANZ085-086-088-633-658-670-010900- MARINE OBSERVATIONS STATION/POSITION TIME TEMP WIND PRES WAVE SWELL AIR SEA DIR/SP/G HT/PER HT/PER (UTC) (F) (DEG/KT/KT) (MB) (FT/S) (FT/S) CHESAPEAKE LIGHT 0700 38 230/ 4/ 5 1025.7 64 E VA BEACH 0800 42 48 280/ 8/ 10 1024.8 5/ 8 5/ 8 DUCK 0800 37 41 230/ 9/ 10 1024.4 2 E DUCK 0800 40 N/A 3/ 8 10 NE DUCK 0800 43 N/A 3/ 8 OREGON INLET 0800 38 38 210/ 6/ 7 1025.5 13E OREGON INLT 0800 45 N/A 5/12 2/12 HATTERAS CG 0800 39 41 250/ 6/ 9 1026.1 DIAMOND BUOY 0800 50 71 280/ 12/ 17 1025.9 7/11 7/11 17 S OCRACOKE NOT AVBL CAPE LOOKOUT 0700 45 250/ 5/ 6 1026.2 BEAUFORT LAB 0800 40 45 320/ 2/ 3 1025.3 27 SE WRIGHTSVLE NOT AVBL 5 SE WRIGHTSVLE 0700 47 51 230/ 8/ 10 1026.0 225 S CAPE HAT 0703 56 70 10/ 6/ 10 1026.6 9/11 8/11 41 SE CHARLESTON 0800 55 69 170/ 4/ 6 1026.2 4/ 9 3/ 9 $$

USA.gov is the U.S. government's official web portal to all federal, state and local government web resources and services.